This demonstration page uses our WeatherBlox Daily Observations layout. Learn more.

Left ArrowRight Arrow

31.31129, -92.44514

Hourly Observations for July 2, 2022

Temp ( °F °C ) Dew Point ( °F °C ) Humidity (%) Winds ( mph kmh ) Pressure ( in mb ) Visibility ( mi km ) Precip ( " mm )
12:16 am 00:16 Partly Cloudy 78 25.6 75 23.9 90 90 SSE 10 17 29.97 1015 9 14 0.00 0.00
12:53 am 00:53 Mostly Cloudy 78 25.6 75 23.9 90 90 SSE 9 15 29.97 1015 9 14 0.00 0.00
1:02 am 01:02 Partly Cloudy 78 25.6 75 23.9 90 90 SE 9 15 29.96 1014 9 14 0.00 0.00
1:53 am 01:53 Mostly Cloudy 78 25.6 75 23.9 90 90 SSE 8 13 29.96 1015 9 14 0.00 0.00
2:53 am 02:53 Mostly Cloudy 78 25.6 75 23.9 90 90 SSE 7 11 29.96 1014 8 13 0.00 0.00
3:06 am 03:06 Mostly Cloudy 77 25 75 23.9 94 94 SSE 6 9 29.95 1014 7 11 0.00 0.00
3:14 am 03:14 Partly Cloudy 77 25 75 23.9 94 94 SSE 6 9 29.95 1014 8 13 0.00 0.00
3:53 am 03:53 Mostly Clear 77 25 74 23.3 90 90 SSE 5 7 29.96 1014 8 13 0.00 0.00
4:53 am 04:53 Mostly Clear 77 25 74 23.3 90 90 SSE 5 7 29.95 1014 8 13 0.00 0.00
5:53 am 05:53 Clear 77 25 74 23.3 90 90 SSE 6 9 29.96 1015 8 13 0.00 0.00
6:53 am 06:53 Mostly Sunny 77 25 75 23.9 94 94 SSE 5 7 29.98 1015 7 11 0.00 0.00
7:42 am 07:42 Partly Cloudy 78 25.6 75 23.9 90 90 SSE 6 9 29.98 1015 8 13 0.00 0.00
7:53 am 07:53 Partly Cloudy 78 25.6 75 23.9 90 90 S 6 9 29.99 1016 8 13 0.00 0.00
8:42 am 08:42 Mostly Cloudy 80 26.7 76 24.4 87 87 S 9 15 30.00 1016 9 14 0.00 0.00
8:53 am 08:53 Mostly Cloudy 81 27.2 76 24.4 85 85 S 6 9 30.00 1016 10 16 0.00 0.00
9:53 am 09:53 Cloudy 82 27.8 75 23.9 79 79 SSW 13 20 30.01 1016 10 16 0.00 0.00
10:00 am 10:00 Mostly Cloudy 83 28.3 75 23.9 77 77 SSW 9 15 30.00 1016 10 16 0.00 0.00
10:08 am 10:08 Cloudy 83 28.3 75 23.9 77 77 S 8 13 30.00 1016 10 16 0.00 0.00
10:53 am 10:53 Mostly Cloudy 86 30 75 23.9 70 70 SSW 8 13 30.00 1016 10 16 0.00 0.00
11:53 am 11:53 Mostly Cloudy 86 30 74 23.3 67 67 W 22 35 30.00 1016 2 3 0.00 0.00
12:04 pm 12:04 Mostly Cloudy 81 27.2 74 23.3 79 79 SW 7 11 29.99 1015 1 1 0.00 0.00
12:10 pm 12:10 Mostly Cloudy 81 27.2 75 23.9 82 82 SW 6 9 29.99 1015 2 3 0.00 0.00
12:18 pm 12:18 Cloudy 83 28.3 75 23.9 77 77 SSW 12 19 29.99 1015 10 16 0.00 0.00
12:53 pm 12:53 Partly Cloudy 85 29.4 74 23.3 70 70 SW 7 11 29.99 1016 10 16 0.00 0.00
1:53 pm 13:53 Mostly Sunny 90 32.2 74 23.3 59 59 SW 10 17 29.96 1015 10 16 0.00 0.00
2:19 pm 14:19 Sunny with Nearby Thunderstorms 91 32.8 74 23.3 57 57 SW 6 9 29.93 1014 10 16 0.00 0.00
2:46 pm 14:46 Mostly Cloudy 82 27.8 72 22.2 72 72 WNW 14 22 29.94 1014 2 3 0.00 0.00
2:53 pm 14:53 Mostly Cloudy with Nearby Thunderstorms 80 26.7 74 23.3 82 82 WNW 12 19 29.96 1015 2 3 0.00 0.00
3:08 pm 15:08 Cloudy 81 27.2 75 23.9 82 82 Calm 29.96 1014 7 11 0.00 0.00
3:17 pm 15:17 Cloudy with Nearby Thunderstorms 81 27.2 75 23.9 82 82 S 10 17 29.97 1015 1 2 0.00 0.00
3:35 pm 15:35 Cloudy 79 26.1 75 23.9 88 88 S 8 13 29.97 1015 8 13 0.00 0.00
3:53 pm 15:53 Mostly Cloudy 79 26.1 76 24.4 90 90 Calm 29.95 1014 8 13 0.00 0.00
4:53 pm 16:53 Mostly Sunny 83 28.3 75 23.9 77 77 S 3 6 29.96 1014 10 16 0.00 0.00
5:53 pm 17:53 Sunny 85 29.4 74 23.3 70 70 VRB 5 7 29.94 1014 10 16 0.00 0.00
6:53 pm 18:53 Sunny 84 28.9 76 24.4 77 77 E 7 11 29.94 1014 10 16 0.00 0.00
7:53 pm 19:53 Sunny 83 28.3 77 25 82 82 E 5 7 29.93 1014 10 16 0.00 0.00
8:53 pm 20:53 Clear 81 27.2 76 24.4 85 85 ESE 6 9 29.94 1014 10 16 0.00 0.00
9:53 pm 21:53 Clear 80 26.7 76 24.4 87 87 SSE 7 11 29.95 1014 10 16 0.00 0.00
10:53 pm 22:53 Clear 79 26.1 76 24.4 90 90 SSE 7 11 29.96 1015 10 16 0.00 0.00
11:53 pm 23:53 Clear 78 25.6 75 23.9 90 90 SSE 5 7 29.98 1015 10 16 0.00 0.00

Powered by AerisWeather